Tracking 20232 objects as of 21-Jan-2020
HD Live streaming from Space Station
objects crossing your sky now

METEOR 2-17 DEB

Track METEOR 2-17 DEB now!
10-day predictions


NORAD ID: 29302
Int'l Code: 1988-005R
Perigee: 896.2 km
Apogee: 917.3 km
Inclination: 82.5 °
Period: 103.0 minutes
Semi major axis: 7277 km
RCS: 0.0088 m2 (small)
Launch date: January 30, 1988
Source: Commonwealth of Independent States (former USSR) (CIS)
Launch site: PLESETSK MISSILE AND SPACE COMPLEX (PKMTR)

Note: This is SATELLITE DEBRIS
aabbcc
Your satellite tracking list
Your tracking list is empty




NASA's NSSDC Master Catalog

Two Line Element Set (TLE):
1 29302U 88005R   20020.14458448  .00000543  00000-0  37000-3 0  9994
2 29302  82.5453 329.0041 0014541 212.7000 147.3269 13.98319643698430
Source of the keplerian elements: AFSPC